This demonstration page uses our WeatherBlox Daily Observations layout. Learn more.

41.55636, -103.73856

Hourly Observations for June 25, 2020

Temp ( °F °C ) Dew Point ( °F °C ) Humidity (%) Winds ( mph kmh ) Pressure ( in mb ) Visibility ( mi km ) Precip ( " mm )
12:58 am 00:58 Clear 87 30.5 45 7.3 23 23 E 12 19 29.77 1008 10 16.0934 0 0
1:58 am 01:58 Clear 81 27 48 8.8 32 32 ESE 12 19 29.77 1008 10 16.0934 0 0
2:58 am 02:58 Clear 76 24.2 48 8.9 38 38 SE 13 20 29.78 1008 10 16.0934 0 0
3:58 am 03:58 Mostly Clear 75 24 48 8.8 38 38 SSE 16 26 29.78 1009 10 16.0934 0 0
4:58 am 04:58 Clear 73 22.9 49 9.4 42 42 SSE 21 33 29.78 1008 10 16.0934 0 0
5:58 am 05:58 Clear 74 23.6 51 10.5 44 44 S 21 33 29.77 1008 10 16.0934 0 0
6:58 am 06:58 Clear 70 21.2 54 12.1 56 56 S 17 28 29.77 1008 10 16.0934 0 0
7:58 am 07:58 Partly Cloudy 68 20.2 54 12.3 61 61 S 14 22 29.75 1007 10 16.0934 0 0
8:58 am 08:58 Clear 65 18.1 54 12 68 68 NW 3 6 29.75 1008 10 16.0934 0 0
9:58 am 09:58 Mostly Cloudy 65 18.4 54 12 66 66 Calm 29.75 1008 10 16.0934 0 0
10:58 am 10:58 Mostly Cloudy 66 18.7 52 11.3 62 62 Calm 29.75 1007 10 16.0934 0 0
11:58 am 11:58 Mostly Cloudy 64 17.9 50 10 60 60 SW 7 11 29.75 1008 10 16.0934 0 0
12:58 pm 12:58 Mostly Sunny 69 20.5 48 8.7 47 47 SW 5 7 29.75 1007 10 16.0934 0 0
1:58 pm 13:58 Partly Cloudy 75 23.9 46 7.7 36 36 WSW 6 9 29.75 1008 10 16.0934 0 0
2:58 pm 14:58 Mostly Sunny 78 25.7 44 6.9 30 30 SW 10 17 29.78 1008 10 16.0934 0 0
3:56 pm 15:56 Sunny 84 29.1 40 4.7 21 21 NW 9 15 29.77 1008 10 16.0934 0 0
4:56 pm 16:56 Sunny 85 29.4 40 4.2 20 20 WNW 16 26 29.78 1008 10 16.0934 0 0
5:56 pm 17:56 Sunny 86 30 41 5.2 21 21 NNW 15 24 29.77 1008 10 16.0934 0 0
6:56 pm 18:56 Sunny 89 31.6 44 6.4 21 21 N 13 20 29.76 1008 10 16.0934 0 0
7:56 pm 19:56 Sunny 89 31.9 46 7.6 22 22 NW 15 24 29.75 1007 10 16.0934 0 0
8:56 pm 20:56 Sunny 89 31.9 47 8.1 23 23 N 13 20 29.74 1007 10 16.0934 0 0
9:58 pm 21:58 Sunny 87 30.7 48 8.7 25 25 N 14 22 29.75 1008 10 16.0934 0 0
10:58 pm 22:58 Mostly Cloudy 84 29 49 9.5 30 30 W 5 7 29.77 1008 10 16.0934 0 0
11:58 pm 23:58 Partly Cloudy 80 26.7 42 5.6 26 26 SW 13 20 29.78 1009 10 16.0934 0 0

Powered by AerisWeather